Regional Weather Roundup
Issued by NWS

Home | Current Version | Previous Version | Graphics & Text | Print | Product List | Glossary On
Versions: 1 2 3 4 5 6 7 8 9 10 11 12 13 14 15 16 17 18 19 20 21 22 23 24 25 26 27 28 29 30 31 32 33 34 35 36 37 38 39 40 41 42 43 44 45 46 47 48 49 50
772
ASUS45 KTFX 210110
RWRMT
MONTANA REGIONAL WEATHER ROUNDUP
NATIONAL WEATHER SERVICE GREAT FALLS MT
600 PM MST TUE FEB 20 2018

NOTE: "FAIR" INDICATES FEW OR NO CLOUDS BELOW 12000 FEET WITH NO
SIGNIFICANT WEATHER AND/OR OBSTRUCTIONS TO VISIBILITY.

MTZ001>007-043-210200-
WEST OF THE DIVIDE

CITY           SKY/WX    TMP DP  RH WIND       PRES   REMARKS
KALISPELL      CLOUDY    10   4  76 N5        30.14S
MISSOULA       CLOUDY    14  -1  51 CALM      30.13R
BUTTE          FAIR       2  -8  63 NW3       29.94R
MULLAN PASS    LGT SNOW   2  -2  83 CALM      29.88S FOG
ANACONDA         N/A      1  -9  60 CALM      30.00
DEER LODGE       N/A      0  -9  65 W6        30.04R WCI -12
HAMILTON         N/A     14  -2  48 MISG      30.08S
PLAINS           N/A     11  -5  48 E8        30.17R WCI  -1
RONAN            N/A     -2  -6  84 CALM      30.17
THOMPSON FALLS   N/A     15   4  61 E6        30.20  WCI   6
$$

MTZ008-052>055-210200-
SOUTHWEST MONTANA

CITY           SKY/WX    TMP DP  RH WIND       PRES   REMARKS
BOZEMAN        FAIR      -1 -10  65 N3        30.04S
DILLON         FAIR      -4  -7  87 CALM      29.96R
ENNIS          MOCLDY     5  -6  61 S10       30.00R WCI -10
W YELLOWSTONE  LGT SNOW   3  -4  72 SW7       29.91R WCI  -9
THREE FORKS      N/A      4  -8  57 CALM      30.05R
TWIN BRIDGES     N/A      6 -10  47 CALM      29.98R
$$

MTZ009-010-012-014-046-048-049-054-210200-
EAST SLOPES AND CENTRAL MONTANA

CITY           SKY/WX    TMP DP  RH WIND       PRES   REMARKS
CUT BANK       CLOUDY     3  -3  76 N7        30.04S WCI  -9
GREAT FALLS    FAIR       0  -9  65 CALM      30.07R
HELENA         FAIR       3  -7  63 W6        30.09R WCI  -8
AUGUSTA        FAIR       0  -7  74 CALM      30.00R
CHOTEAU          N/A     -2  -9  71 NE6       30.06R WCI -14
CONRAD           N/A     -7 -15  68 S3        30.08
RAYNESFORD     FAIR       5  -6  59 CALM      30.05R
WHITE SULPHUR    N/A     -8 -13  77 S5        29.97R
$$

MTZ011-013-016-021-045-047-050-051-210200-
NORTH CENTRAL MONTANA

CITY           SKY/WX    TMP DP  RH WIND       PRES   REMARKS
HAVRE          FAIR      -5 -12  72 SW15      30.15R WCI -26
LEWISTOWN      FAIR      -6 -15  65 SW13      30.05R WCI -25
N BAR RANCH    FAIR       0 -17  46 NW5       30.03S
CHINOOK          N/A     -2  -9  71 W7        30.16R WCI -16
GEYSER         FAIR       6  -7  54 W12       30.03R WCI -10
STANFORD       MOCLDY     0  -8  69 SW8       30.01R WCI -14
$$

MTZ017>020-022>027-061-062-210200-
NORTHEAST MONTANA

CITY           SKY/WX    TMP DP  RH WIND       PRES   REMARKS
GLASGOW        FAIR      -9 -15  75 NW8       30.15R WCI -25
GLENDIVE       FAIR      -4 -12  68 SW7       30.18R WCI -18
JORDAN           N/A     -9 -16  71 W7        30.15R WCI -24
MALTA          CLEAR    -11 -18  70 SW12      30.15S WCI -31
SIDNEY         FAIR      -4 -10  75 S6        30.19R WCI -16
WOLF POINT     FAIR      -6 -14  68 W8        30.19R WCI -21
PLENTYWOOD       N/A      1  -9  60 CALM      30.09R
POPLAR           N/A     -6 -11  77 W7        30.19R WCI -20
SCOBEY           N/A     -2 -15  53 SW12      30.06R WCI -19
$$

MTZ028>42-056>058-210200-
SOUTHCENTRAL AND SOUTHEAST MONTANA

CITY           SKY/WX    TMP DP  RH WIND       PRES   REMARKS
BAKER          FAIR      -6 -11  79 SW13      30.15R WCI -25
BILLINGS       FAIR       5  -5  63 SW16      30.11R WCI -14
LIVINGSTON     CLOUDY    10  -1  61 SW6       30.00R WCI   0
MILES CITY     FAIR      -2 -10  69 SW5       30.19R
BIG TIMBER     CLOUDY     5  -6  61 N5        30.05R
EKALAKA          N/A     -2 -13  59 SW7       30.06R WCI -15
FORSYTH          N/A     -2  -9  71 CALM      30.18R
LAUREL           N/A      3  -6  66 SW17      30.14R WCI -17
$$

REGIONAL REPORTS...DAKOTAS

CITY           SKY/WX    TMP DP  RH WIND       PRES   REMARKS
WILLISTON      FAIR       1  -8  66 SW14      30.15R WCI -17
MINOT          FAIR       5  -4  66 SW15      30.10R WCI -13
DICKINSON      FAIR      -4 -10  75 W13       30.12R WCI -23
BEACH          FAIR      -6 -11  77 W15       30.17R WCI -27
CROSBY         MOCLDY     1  -6  71 SW18      30.08R WCI -19
TIOGA          FAIR      -2  -6  84 W17       30.09R WCI -24
WATFORD CITY   FAIR      -2  -9  71 SW12      30.16R WCI -20
BISMARCK       FAIR       5  -4  66 W8        30.22R WCI  -8
GRAND FORKS    FAIR       5  -2  72 SW7       30.19R WCI  -7
FARGO          FAIR       4  -2  76 W8        30.24R WCI  -9
BUFFALO SD       N/A     -2 -10  69 W6        30.08R WCI -14
RAPID CITY     FAIR      -6 -11  79 CALM      30.18R
$$

REGIONAL REPORTS...WYOMING/IDAHO/WASHINGTON

CITY           SKY/WX    TMP DP  RH WIND       PRES   REMARKS
GILLETTE       FAIR      -6 -15  65 SW3       30.08R
SHERIDAN       FAIR      -3 -13  62 W3        30.10R
BUFFALO WY     FAIR       3 -11  52 SW5       30.03R
CODY           FAIR      -6 -11  79 NE7       30.02R WCI -20
YELLOWSTONE LA   N/A     -3 -10  72 VRB6      29.87R WCI -15
IDAHO FALLS    FAIR      15   6  67 S14       30.09R WCI   0
SALMON         FAIR      18   4  54 W3        30.03R
BOISE          FAIR      26   1  34 SE5       30.14S
SPOKANE        CLOUDY    20   6  55 CALM      30.17R
$$

REGIONAL REPORTS...ALBERTA

CITY           SKY/WX    TMP DP  RH WIND       PRES   REMARKS
$$

REGIONAL REPORTS...SASKATCHEWAN

CITY           SKY/WX    TMP DP  RH WIND       PRES   REMARKS
$$




USA.gov is the U.S. government's official web portal to all federal, state and local government web resources and services.